Location: *
(35.2348°S, 91.3916°E)
Time: 01:46:04
(UTC+00:00)

Cosmos 1455 Rocket - Pass Details

Date: 23 October 2019
Orbit: 604 x 631 km, 82.5° (Epoch: 16 November)

Event Time Altitude Azimuth Distance (km) Brightness Sun altitude
Exits shadow 21:00:18 19° 28° (NNE) 1,457 4.9 -23.3°
Maximum altitude 21:02:58 40° 88° (E) 909 4.2 -22.8°
Drops below altitude 10° 21:07:07 10° 157° (SSE) 2,000 6.4 -22.1°
Sets 21:09:27 0° 164° (SSE) 2,918 7.3 -21.7°
